DateTimeUTC,F1_A11,F1_S11,BsB_S11,BsG_S11,BsR_S11,BbsB_S11,BbsG_S11,BbsR_S11,BaB_A11,BaG_A11,BaR_A11,Tu_S11,T_S11,Uu_S11,U_S11,P_S11,T1_A11
2021-10-12T21:00:00Z,00000200,21000000,,,,,,,0000.26,-000.17,0000.11,16.6,24.0,,00.0,0669.9,30.9
2021-10-12T21:01:00Z,00000200,21000000,,,,,,,0000.01,-000.09,0000.02,16.6,24.0,,00.0,0669.9,30.9
2021-10-12T21:02:00Z,00000200,21000000,,,,,,,-000.07,0000.20,-000.02,16.6,24.0,,00.0,0669.9,30.9
2021-10-12T21:03:00Z,00000200,61000000,,,,,,,0000.07,0000.01,0000.02,16.6,24.1,,00.0,0669.9,30.9
2021-10-12T21:04:00Z,00000200,41000000,0001.92,0001.10,0000.90,0000.04,0000.22,0000.15,-000.15,0000.10,0000.05,17.0,23.9,,00.0,0670.9,30.9
2021-10-12T21:05:00Z,00000200,01000000,0002.80,0001.70,0000.69,0000.34,0000.52,0000.37,0000.35,0000.06,-000.12,17.0,23.9,,00.0,0671.0,30.9
2021-10-12T21:06:00Z,00000200,01000000,0002.63,0001.42,0001.11,-000.05,-000.13,0000.54,0000.15,0000.54,-000.18,16.9,23.8,,00.0,0670.9,30.9
2021-10-12T21:07:00Z,00000200,01000000,0002.63,0001.52,0001.01,0000.64,0000.44,0000.18,0000.26,-000.01,0000.45,16.8,23.8,,00.0,0670.9,30.9
2021-10-12T21:08:00Z,00000200,01000000,0002.09,0001.68,0000.66,0000.02,0000.22,0000.22,0000.51,0000.42,0000.31,16.8,23.7,,00.0,0670.9,30.9
2021-10-12T21:09:00Z,00000200,01000000,0002.74,0001.83,0001.11,0000.40,0000.27,0000.04,0000.54,0000.07,0000.23,16.7,23.7,,00.0,0670.9,30.9
2021-10-12T21:10:00Z,00000200,01000000,0002.89,0001.80,0001.24,-000.01,0000.20,0000.37,0000.49,0000.43,0000.06,16.6,23.6,,00.0,0671.0,30.9
2021-10-12T21:11:00Z,00000200,01000000,0003.73,0001.55,0000.93,0000.40,0000.18,0000.69,0000.40,0000.63,0000.61,16.6,23.6,,00.0,0670.9,30.9
2021-10-12T21:12:00Z,00000200,01000000,0004.02,0001.88,0001.46,0000.96,-000.06,0000.49,0000.61,0000.34,0000.34,16.5,23.5,,00.0,0670.9,30.9
2021-10-12T21:13:00Z,00000200,01000000,0004.09,0002.13,0001.36,0001.08,0000.19,0000.33,0000.47,0000.75,0000.40,16.5,23.5,,00.0,0670.9,30.8
2021-10-12T21:14:00Z,00000200,01000000,0003.96,0002.02,0001.14,0000.21,0000.40,0000.25,0000.82,0000.65,0000.77,16.6,23.5,,00.0,0670.9,30.9
2021-10-12T21:15:00Z,00000200,01000000,0003.42,0001.82,0001.26,0000.31,0000.02,0000.18,0000.26,0000.38,0000.15,16.7,23.5,,00.0,0670.9,30.9
2021-10-12T21:16:00Z,00000200,01000000,0002.56,0001.46,0001.13,0000.08,0000.16,0000.14,0000.55,0000.60,0000.52,16.7,23.6,,00.0,0670.9,30.9
2021-10-12T21:17:00Z,00000200,01000000,0002.72,0001.96,0001.01,0000.48,0000.30,0000.60,0000.63,0000.11,-000.01,16.8,23.6,,00.0,0671.0,30.9
2021-10-12T21:18:00Z,00000200,01000000,0002.14,0001.49,0000.93,0000.50,0000.12,0000.28,0000.54,0000.76,0000.39,16.9,23.6,,00.0,0671.0,30.9
2021-10-12T21:19:00Z,00000200,01000000,0002.35,0001.90,0001.15,-000.23,0000.21,0000.39,0000.30,0000.10,0000.04,16.9,23.6,,00.0,0671.0,30.9
2021-10-12T21:20:00Z,00000200,01000000,0003.24,0002.23,0001.11,0000.85,0000.24,0000.15,0000.39,0000.41,0000.30,17.0,23.7,,00.0,0671.0,30.9
2021-10-12T21:21:00Z,00000200,01000000,0004.35,0002.50,0001.31,0000.62,0000.09,0000.42,0000.68,0000.56,0000.65,17.1,23.7,,00.0,0671.0,30.9
2021-10-12T21:22:00Z,00000200,01000000,0004.49,0002.77,0001.39,0000.05,0000.08,0000.50,0000.67,0000.60,0000.34,17.1,23.7,,00.0,0671.0,30.9
2021-10-12T21:23:00Z,00000200,01000000,0003.56,0002.49,0001.36,-000.22,0000.17,0000.55,0000.08,0000.28,0000.30,17.1,23.7,,00.0,0671.0,31.0
2021-10-12T21:24:00Z,00000200,01000000,0003.30,0001.69,0001.30,-000.06,0000.24,0000.47,0000.67,0000.11,0000.01,17.2,23.8,,00.0,0671.0,30.9
2021-10-12T21:25:00Z,00000200,01000000,0002.83,0001.57,0001.17,0000.01,0000.14,0000.50,-000.06,0000.34,-000.24,17.1,23.8,,00.0,0671.0,30.9
2021-10-12T21:26:00Z,00000200,01000000,0002.27,0001.52,0001.06,0000.00,0000.50,0000.39,0000.45,0000.32,0000.41,17.0,23.7,,00.0,0670.9,30.9
2021-10-12T21:27:00Z,00000200,01000000,0002.70,0001.28,0000.52,0000.29,0000.09,0000.25,0000.62,-000.01,0000.44,17.0,23.7,,00.0,0670.9,30.9
2021-10-12T21:28:00Z,00000200,01000000,0002.25,0000.91,0000.37,0000.25,0000.06,0000.15,0000.55,0000.71,0000.26,17.0,23.7,,00.0,0670.9,30.9
2021-10-12T21:29:00Z,00000200,01000000,0002.54,0000.71,0000.75,0000.50,0000.19,0000.38,0000.24,0000.92,0000.46,17.0,23.7,,00.0,0670.9,30.9
2021-10-12T21:30:00Z,00000200,01000000,0002.04,0001.04,0000.67,0000.48,0000.30,0000.34,0000.70,0000.07,0000.05,17.1,23.7,,00.0,0670.9,30.9
2021-10-12T21:31:00Z,00000200,01000000,0001.79,0001.02,0000.65,0000.27,-000.01,0000.42,0000.12,0000.34,0000.38,17.1,23.7,,00.0,0671.0,30.9
2021-10-12T21:32:00Z,00000200,01000000,0002.42,0001.19,0000.56,0000.30,-000.00,0000.74,0000.49,0000.25,0000.29,17.2,23.8,,00.0,0671.0,30.9
2021-10-12T21:33:00Z,00000200,01000000,0001.75,0001.08,0000.83,-000.32,-000.26,0000.12,0000.23,0000.57,0000.29,17.3,23.8,,00.0,0671.0,30.9
2021-10-12T21:34:00Z,00000200,01000000,0002.08,0000.85,0000.68,0000.49,0000.08,0000.03,0000.58,0000.26,0000.17,17.3,23.8,,00.0,0671.0,31.0
2021-10-12T21:35:00Z,00000200,01000000,0002.37,0000.99,0000.68,0000.11,0000.27,0000.36,0000.11,0000.15,0000.08,17.4,23.8,,00.0,0671.0,31.0
2021-10-12T21:36:00Z,00000200,01000000,0002.86,0001.13,0001.02,0000.27,0000.36,0000.29,0000.21,0000.02,0000.06,17.4,23.9,,00.0,0671.0,31.0
2021-10-12T21:37:00Z,00000200,01000000,0002.49,0001.24,0000.74,0000.38,0000.14,0000.55,-000.16,0000.25,-000.17,17.4,23.9,,00.0,0671.0,31.0
2021-10-12T21:38:00Z,00000200,01000000,0003.01,0001.10,0000.75,0000.22,-000.17,0000.25,0000.35,-000.05,0000.22,17.4,23.9,,00.0,0671.0,31.0
2021-10-12T21:39:00Z,00000200,01000000,0002.25,0001.09,0000.65,-000.30,0000.28,0000.54,0000.09,0000.52,0000.06,17.3,23.9,,00.0,0671.0,30.9
2021-10-12T21:40:00Z,00000200,01000000,0002.33,0001.38,0000.56,0000.62,0000.25,0000.19,0000.24,-000.37,-000.05,17.2,23.8,,00.0,0671.0,30.9
2021-10-12T21:41:00Z,00000200,01000000,0002.91,0001.35,0000.75,0000.57,0000.70,0000.34,0000.64,0000.60,0000.50,17.1,23.8,,00.0,0671.0,30.9
2021-10-12T21:42:00Z,00000200,01000000,0002.92,0001.21,0000.88,0000.55,-000.03,0000.20,0000.12,0000.47,0000.20,17.1,23.8,,00.0,0671.1,30.9
2021-10-12T21:43:00Z,00000200,01000000,0002.71,0001.39,0000.98,0000.34,0000.48,0000.33,0000.66,0000.45,0000.50,17.1,23.7,,00.0,0671.1,30.9
2021-10-12T21:44:00Z,00000200,01000000,0002.90,0001.70,0000.54,0000.00,0000.35,0000.43,0000.56,0000.63,0000.27,17.1,23.8,,00.0,0671.1,30.9
2021-10-12T21:45:00Z,00000200,01000000,0001.70,0001.35,0000.80,0000.31,-000.13,0000.15,0000.48,0000.33,0000.17,17.2,23.8,,00.0,0671.1,30.9
2021-10-12T21:46:00Z,00000200,01000000,0003.08,0001.53,0000.71,-000.21,0000.30,0000.27,0000.52,0000.15,0000.52,17.2,23.8,,00.0,0671.1,30.9
2021-10-12T21:47:00Z,00000200,01000000,0002.33,0001.18,0000.47,0000.34,0000.24,0000.05,0000.20,0000.41,0000.08,17.3,23.8,,00.0,0671.1,31.0
2021-10-12T21:48:00Z,00000200,01000000,0002.55,0001.28,0000.65,-000.24,0000.42,0000.19,0000.48,0000.38,0000.26,17.3,23.9,,00.0,0671.1,31.0
2021-10-12T21:49:00Z,00000200,01010000,0002.88,0001.25,0000.99,0000.10,0000.09,0000.54,0000.22,0000.32,0000.08,17.4,23.9,,00.0,0671.1,31.0
2021-10-12T21:50:00Z,00000200,01000000,0001.72,0001.60,0000.82,0000.22,0000.39,0000.25,0000.26,-000.07,-000.08,17.4,23.9,,00.0,0671.1,31.0
2021-10-12T21:51:00Z,00000200,01000000,0002.88,0001.34,0000.95,0000.02,0000.21,0000.26,0000.21,0000.10,0000.00,17.4,23.9,,00.0,0671.1,31.0
2021-10-12T21:52:00Z,00000200,01000000,0002.84,0001.59,0000.90,0000.64,0000.24,-000.02,0000.22,0000.05,-000.16,17.3,23.9,,00.0,0671.1,30.9
2021-10-12T21:53:00Z,00000200,01000000,0002.71,0001.76,0001.03,0000.39,0000.34,0000.24,0000.40,0000.37,0000.83,17.2,23.9,,00.0,0671.1,30.9
2021-10-12T21:54:00Z,00000200,01000000,0003.64,0002.02,0001.10,0000.51,-000.06,0000.14,0000.25,0000.56,-000.12,17.1,23.8,,00.0,0671.1,30.9
2021-10-12T21:55:00Z,00000200,01000000,0003.30,0002.24,0001.06,0000.28,0000.35,0000.38,0000.37,0000.27,0000.37,17.0,23.8,,00.0,0671.1,30.9
2021-10-12T21:56:00Z,00000200,01000000,0003.48,0001.58,0001.14,0001.18,0000.60,0000.50,0000.52,0000.16,0000.24,17.0,23.8,,00.0,0671.1,30.9
2021-10-12T21:57:00Z,00000200,41000000,,,,,,,0000.49,0000.72,0000.18,17.0,23.8,,00.0,0671.1,30.9
2021-10-12T21:58:00Z,00000200,61000000,,,,,,,0000.12,-000.06,0000.26,16.5,23.9,,00.0,0670.1,30.9
2021-10-12T21:59:00Z,00000200,21000000,,,,,,,-000.28,0000.45,0000.13,16.5,24.0,,00.0,0670.1,30.9
